Regional Weather Roundup
Issued by NWS

Home | Current Version | Previous Version | Graphics & Text | Print | Product List | Glossary On
Versions: 1 2 3 4 5 6 7 8 9 10 11 12 13 14 15 16 17 18 19 20 21 22 23 24 25 26 27 28 29 30 31 32 33 34 35 36 37 38 39 40 41 42 43 44 45 46 47 48 49 50
000
ASUS43 KDMX 161107
RWRIA

WEATHER ROUNDUP FOR IOWA
NATIONAL WEATHER SERVICE DES MOINES IA
600 AM CDT TUE SEP 16 2014

NOTE: "FAIR" INDICATES FEW OR NO CLOUDS BELOW 12,000 FEET WITH NO
SIGNIFICANT WEATHER AND/OR OBSTRUCTIONS TO VISIBILITY.

* - THESE STATIONS ARE NOT NWS STATIONS...THUS NOT UNDER NWS
QUALITY CONTROL.  THEY ALSO DO NOT REPORT WEATHER SUCH
AS PRECIPITATION OR FOG.

IAZ001>003-012>014-020>022-031>034-043>046-161200-
   NORTHWEST IOWA

CITY           SKY/WX    TMP DP  RH WIND       PRES   REMARKS
CARROLL *      CLEAR     36  36 100 CALM      30.24F FOG
CHEROKEE *     CLEAR     34  34 100 CALM      30.23S
DENISON *      CLEAR     37  37 100 CALM      30.23F
LE MARS *      CLEAR     36  36 100 CALM      30.23S
ORANGE CITY *  CLEAR     43  37  81 CALM      30.21F
SHELDON *      CLEAR     36  36 100 CALM      30.21S
SIOUX CITY     PTCLDY    39  38  96 E3        30.23S FOG
SPENCER        CLEAR     36  34  92 CALM      30.22F
STORM LAKE *   CLEAR     41  41 100 SW6       30.23S
$$

IAZ055>058-069>071-079>083-090>094-161200-
   SOUTHWEST IOWA

CITY           SKY/WX    TMP DP  RH WIND       PRES   REMARKS
ATLANTIC *     FOG       39  39 100 CALM      30.25F VSB 0
AUDUBON *      CLEAR     37  36  93 CALM      30.26S
CLARINDA *     FOG       41  41 100 CALM      30.27F VSB 0
COUNCIL BLFS *   N/A     45  45 100 SE3       30.23F
CRESTON *      CLEAR     41  41 100 N3        30.26S FOG
HARLAN  *      FOG       37  37 100 CALM      30.28F VSB 1/4
LAMONI         CLEAR     46  43  89 N3        30.25F
SHENANDOAH *   FOG       39  39 100 CALM      30.27S VSB 1/4
$$

IAZ047>049-059>061-072>074-084-161200-
   CENTRAL IOWA

CITY           SKY/WX    TMP DP  RH WIND       PRES   REMARKS
AMES           CLEAR     38  37  97 CALM      30.25S
ANKENY *       FOG       39  39 100 CALM      30.25S VSB 1/4
CHARITON *     CLEAR     43  41  93 CALM      30.25F
DES MOINES     CLEAR     46  42  86 CALM      30.25F
GRINNELL*      CLEAR     41  39  93 NW5       30.25F
KNOXVILLE *    CLEAR     43  41  93 CALM      30.24F FOG
MARSHALLTOWN   FOG       38  37  97 CALM      30.24S VSB 3/4
PELLA *        CLEAR     43  41  93 CALM      30.26F
PERRY *          N/A     37  37 100 CALM      30.25F
$$

IAZ004>006-015-016-023>025-035-036-161200-
   NORTH CENTRAL IOWA

CITY           SKY/WX    TMP DP  RH WIND       PRES   REMARKS
ALGONA *       CLEAR     41  39  93 SW6       30.24R
CLARION *        N/A     36  36 100 S5        30.24S WCI  32
ESTHERVILLE    CLEAR     38  36  92 SW5       30.22S WCI  34
FORT DODGE *   CLEAR     37  36  93 CALM      30.24F
MASON CITY     CLEAR     37  36  96 CALM      30.24S
FOREST CITY *  FOG       34  34 100 CALM      30.23S VSB 3/4
IOWA FALLS *     N/A     39  37  93 CALM      30.25S
$$

IAZ007>011-017>019-026>030-037>042-050>054-066-161200-
   NORTHEAST IOWA

CITY           SKY/WX    TMP DP  RH WIND       PRES   REMARKS
CEDAR RAPIDS   CLEAR     40  40 100 NW3       30.23S
CHARLES CITY * FOG       37  36  93 CALM      30.24S VSB 1
CLINTON *        N/A     37  36  93 CALM      30.25S VSB 3/4
DECORAH *      CLEAR     39  39 100 CALM      30.22S
DUBUQUE        CLEAR     40  38  93 CALM      30.23S
MONTICELLO *   CLEAR     36  36 100 CALM      30.24R
OELWEIN *      CLEAR     37  37 100 CALM      30.24S FOG
WATERLOO       CLEAR     35  34  96 CALM      30.24S
$$

IAZ064-065-067-068-078-161200-
   EAST CENTRAL IOWA

CITY           SKY/WX    TMP DP  RH WIND       PRES   REMARKS
DAVENPORT      CLEAR     41  38  89 NW3       30.23S
IOWA CITY      CLEAR     41  40  96 W6        30.25S
MT. PLEASANT * CLEAR     43  41  93 SW3       30.25R FOG
MUSCATINE *    CLEAR     43  41  93 CALM      30.24S
QUAD CITIES    CLEAR     41  40  96 CALM      30.23S
$$

IAZ062-063-075>077-085>089-095>099-161200-
   SOUTHEAST IOWA

CITY           SKY/WX    TMP DP  RH WIND       PRES   REMARKS
BURLINGTON     CLEAR     44  44 100 NW3       30.24R
FAIRFIELD *    CLEAR     43  41  93 NW6       30.25S
FORT MADISON * CLEAR     45  45 100 CALM      30.24F FOG
KEOKUK *       FOG       43  43 100 SW3       30.24R VSB 3/4
OSKALOOSA *      N/A     39  39 100 NW6       30.26R WCI  35
CENTERVILLE *    N/A     41  41 100 CALM      30.26S FOG
OTTUMWA        FOG       39  39 100 W5        30.25S VSB 1/2
WASHINGTON *   CLEAR     41  41 100 CALM      30.25R
$$

ABBREVIATIONS USED IN REMARKS
   TC - TEMPERATURES IN CELSIUS
  WCI - WIND CHILL INDEX
   HX - HEAT INDEX
  VSB - VISIBILITY
$$



USA.gov is the U.S. government's official web portal to all federal, state and local government web resources and services.